Manston, United Kingdom

5:00 PM BST on March 30, 2017 (GMT +0100)
Manston

Weather History for EGMH - January, 2014

Change the Weather History Date:

Thursday, January 30, 2014

  Actual Average Record
Temperature  
Mean Temperature 42 °F -  
Max Temperature 45 °F 44 °F - ()
Min Temperature 38 °F 35 °F - ()
Degree Days  
Heating Degree Days 24    
Moisture  
Dew Point 39 °F    
Average Humidity 85    
Maximum Humidity 93    
Minimum Humidity 70    
Precipitation  
Precipitation 0.00 in 0.04 in - ()
Sea Level Pressure  
Sea Level Pressure 29.60 in    
Wind  
Wind Speed 9 mph ()    
Max Wind Speed 15 mph    
Max Gust Speed -    
Visibility 7.4 miles    
Events Rain    
T = Trace of Precipitation, MM = Missing Value Source: Averaged Metar Reports

Daily Weather History Graph

Daily Weather History Graph

Search for Another Location

Airport or City:

Trip Planner

Search our weather history database for the weather conditions in past years. The results will help you decide how hot, cold, wet, or windy it might be!

Date:

Astronomy

Jan. 30, 2014 Rise Set
Actual Time 7:35 AM GMT 4:40 PM GMT
Civil Twilight 6:59 AM GMT 5:17 PM GMT
Nautical Twilight 6:19 AM GMT 5:57 PM GMT
Astronomical Twilight 5:40 AM GMT 6:36 PM GMT
Moon 6:46 AM GMT 4:39 PM GMT
Length of Visible Light 10h 17m
Length of Day
9h 05m
Waning Crescent, 0% of the Moon is Illuminated
Jan 30
Waning Crescent
Jan 30
New
Feb 6
First Quarter
Feb 14
Full
Feb 22
Last Quarter

Hourly Weather History & Observations

Time (GMT) Temp. Windchill Dew Point Humidity Pressure Visibility Wind Dir Wind Speed Gust Speed Precip Events Conditions
12:00 AM 40 °F - 36 °F 81% 29.51 in 5 mi East 15.0 mph - - Rain Light Rain
1:00 AM 41 °F - 36 °F 78% 29.51 in 6 mi ESE 15.0 mph - - Rain Light Rain Showers
2:00 AM 40 °F - 37 °F 85% 29.52 in 2 mi ESE 13.8 mph - - Rain Drizzle
3:00 AM 40 °F - 35 °F 78% 29.53 in 17 mi SE 12.7 mph - - Rain Rain
4:00 AM 39 °F - 36 °F 83% 29.54 in 11 mi SSE 9.2 mph - -   Mostly Cloudy
5:00 AM 40 °F - 36 °F 80% 29.55 in 10 mi SSE 6.9 mph - - Rain Rain
5:50 AM 41.0 °F 34.7 °F 39.2 °F 93% 29.53 in 6.2 mi ESE 10.4 mph - N/A Rain Light Rain
6:00 AM 40 °F - 37 °F 84% 29.55 in 6 mi ESE 13.8 mph - - Rain Rain
6:20 AM 41.0 °F 34.7 °F 39.2 °F 93% 29.53 in 6.2 mi ESE 10.4 mph - N/A   Scattered Clouds
6:50 AM 41.0 °F 34.7 °F 39.2 °F 93% 29.56 in 6.2 mi SE 10.4 mph - N/A   Scattered Clouds
7:00 AM 41 °F - 37 °F 80% 29.56 in 7 mi SE 11.5 mph - - Rain Rain
7:20 AM 41.0 °F 35.2 °F 39.2 °F 93% 29.56 in 6.2 mi SE 9.2 mph - N/A   Mostly Cloudy
7:50 AM 41.0 °F 36.4 °F 39.2 °F 93% 29.56 in 5.0 mi SSE 6.9 mph - N/A   Drizzle
8:00 AM 41 °F - 38 °F 84% 29.58 in 5 mi SSE 10.4 mph - -   Light Haze
8:20 AM 41.0 °F 36.4 °F 39.2 °F 93% 29.56 in 5.0 mi SE 6.9 mph - N/A   Mostly Cloudy
8:50 AM 42.8 °F 38.6 °F 41.0 °F 93% 29.59 in 5.0 mi SE 6.9 mph - N/A   Mostly Cloudy
9:00 AM 42 °F - 39 °F 83% 29.60 in 5 mi SE 9.2 mph - -   Light Haze
9:20 AM 42.8 °F 38.0 °F 41.0 °F 93% 29.59 in 5.0 mi SE 8.1 mph - N/A   Mostly Cloudy
9:50 AM 42.8 °F 38.0 °F 41.0 °F 93% 29.59 in 5.0 mi SE 8.1 mph - N/A   Mostly Cloudy
10:00 AM 43 °F - 40 °F 85% 29.60 in 4 mi SE 9.2 mph - -   Light Haze
10:20 AM 42.8 °F 38.0 °F 41.0 °F 93% 29.59 in 5.6 mi SSE 8.1 mph - N/A   Mostly Cloudy
10:50 AM 44.6 °F 39.7 °F 41.0 °F 87% 29.59 in 5.6 mi SSE 9.2 mph - N/A   Scattered Clouds
11:00 AM 44 °F - 40 °F 79% 29.60 in 6 mi SSE 9.2 mph - -   Light Haze
11:20 AM 46.4 °F 40.7 °F 42.8 °F 87% 29.59 in 6.2 mi SE 12.7 mph - N/A   Scattered Clouds
11:50 AM 44.6 °F 39.2 °F 42.8 °F 93% 29.59 in 6.2 mi SE 10.4 mph - N/A   Mostly Cloudy
12:00 PM 44 °F - 40 °F 79% 29.61 in 7 mi SE 12.7 mph - -   Scattered Clouds
12:20 PM 44.6 °F 39.2 °F 41.0 °F 87% 29.59 in 6.2 mi SSE 10.4 mph - N/A   Mostly Cloudy
12:50 PM 44.6 °F 39.7 °F 41.0 °F 87% 29.59 in 6.2 mi SSE 9.2 mph - N/A   Mostly Cloudy
1:00 PM 44 °F - 39 °F 76% 29.60 in 9 mi SSE 10.4 mph - -   Scattered Clouds
1:20 PM 44.6 °F 40.2 °F 41.0 °F 87% 29.59 in 6.2 mi SSE 8.1 mph - N/A   Mostly Cloudy
1:50 PM 44.6 °F 39.7 °F 41.0 °F 87% 29.59 in 6.2 mi SSE 9.2 mph - N/A   Mostly Cloudy
2:00 PM 45 °F - 38 °F 70% 29.60 in 16 mi SSE 9.2 mph - -   Scattered Clouds
2:20 PM 44.6 °F 40.7 °F 41.0 °F 87% 29.59 in 6.2 mi SSE 6.9 mph - N/A   Mostly Cloudy
2:50 PM 44.6 °F 40.2 °F 41.0 °F 87% 29.59 in 6.2 mi SSE 8.1 mph - N/A   Mostly Cloudy
3:00 PM 45 °F - 38 °F 70% 29.60 in 14 mi SSE 9.2 mph - -   Mostly Cloudy
3:20 PM 44.6 °F 40.2 °F 41.0 °F 87% 29.59 in 6.2 mi SSE 8.1 mph - N/A   Mostly Cloudy
3:50 PM 44.6 °F 40.2 °F 41.0 °F 87% 29.59 in 6.2 mi SSE 8.1 mph - N/A   Mostly Cloudy
4:00 PM 44 °F - 39 °F 75% 29.62 in 11 mi SSE 8.1 mph - -   Overcast
4:20 PM 42.8 °F 38.6 °F 41.0 °F 93% 29.59 in 6.2 mi SE 6.9 mph - N/A   Mostly Cloudy
4:50 PM 42.8 °F 38.6 °F 41.0 °F 93% 29.62 in 6.2 mi SE 6.9 mph - N/A   Scattered Clouds
5:00 PM 43 °F - 38 °F 77% 29.63 in 9 mi SE 8.1 mph - -   Scattered Clouds
5:20 PM 42.8 °F 38.0 °F 41.0 °F 93% 29.62 in 6.2 mi SSE 8.1 mph - N/A   Scattered Clouds
5:50 PM 42.8 °F 38.0 °F 41.0 °F 93% 29.62 in 6.2 mi SSE 8.1 mph - N/A   Partly Cloudy
6:00 PM 43 °F - 38 °F 77% 29.64 in 10 mi South 9.2 mph - -   Scattered Clouds
6:20 PM 44.6 °F 40.7 °F 41.0 °F 87% 29.62 in 6.2 mi SE 6.9 mph - N/A   Partly Cloudy
6:50 PM 44.6 °F 40.7 °F 41.0 °F 87% 29.65 in 6.2 mi SE 6.9 mph - N/A   Partly Cloudy
7:00 PM 43 °F - 39 °F 80% 29.65 in 11 mi SSE 9.2 mph - -   Scattered Clouds
7:20 PM 44.6 °F 39.7 °F 41.0 °F 87% 29.65 in 6.2 mi SSE 9.2 mph - N/A   Partly Cloudy
7:50 PM 42.8 °F 38.6 °F 41.0 °F 93% 29.65 in 6.2 mi SSW 6.9 mph - N/A   Light Drizzle
8:00 PM 42 °F - 37 °F 76% 29.67 in 13 mi South 8.1 mph - -   Mostly Cloudy
8:20 PM 42.8 °F 38.0 °F 37.4 °F 81% 29.65 in 6.2 mi SSW 8.1 mph - N/A   Mostly Cloudy
9:00 PM 41 °F - 36 °F 76% 29.67 in 25 mi SE 5.8 mph - -   Scattered Clouds
10:00 PM 42 °F - 37 °F 76% 29.68 in 17 mi SE 8.1 mph - -   Overcast
11:00 PM 41 °F - 37 °F 79% 29.69 in 15 mi South 4.6 mph - -   Overcast